Location: Calvera
(42.3882°N, 0.6137°E)
Time: 14:50:16
(UTC+00:00)

Cosmos 1455 - Pass Details

Date: 28 October 2020
Orbit: 500 x 521 km, 82.5° (Epoch: 24 November)

Event Time Altitude Azimuth Distance (km) Brightness Sun altitude
Rises 05:52:47 0° 349° (N) 2,657 5.6 -6.8°
Reaches altitude 10° 05:54:56 10° 348° (NNW) 1,765 4.7 -6.4°
Maximum altitude 05:58:47 71° 265° (W) 554 2.2 -5.8°
Drops below altitude 10° 06:02:37 10° 180° (S) 1,751 5.1 -5.1°
Sets 06:04:45 0° 178° (S) 2,633 6.0 -4.7°
